Showing default

INTELSAT 2-F2, 2639

Orbit data source: Space-Track

INTELSAT 2-F2, 2639 is a payload satellite owned by INTELSAT (US) in GEO that was launched on Wed, 11 Jan 1967 UTC via a THOR DELTA E1 launch vehicle from the Air Force Eastern Test Range (AFETR). Payload-class satellites include a variety of spacecraft equipped with specific instruments for various scientific and technological missions. These include communications satellites like Starlink; space stations such as the ISS; scientific satellites like the Hubble; Earth observation satellites from companies like Planet Labs, Umbra, and HawkEye 360; GPS; miniature CubeSats for education and research; and military/defense satellites.

Not visible in the next 10 days
Identifier
2639, 1967-001A
Orbit
GEO
Country
Flag of UnknownUnknown / ITSO
Related business
Manufacturer
Hughes
Mission
Non-operational spacecraft
Bus & Motor
HS-303, SVM-1
Mass
163 kg wet, ~65 kg dry
Launch date (UTC)
1967-01-11 (59 years ago)
Launch vehicle
THOR DELTA E1
Launch site
Air Force Eastern Test Range (AFETR)
Object type
Payload
Rocket body
Debris
Shape & HBR
Unknown
Radar Cross Section
Large (>1 m²)

Expand to show TLE details & history
Last TLE update: 11 hours ago

TLE from 11 hours ago
0 INTELSAT 2-F2
1  2639U 67001A   25342.77788470 -.00000125  00000-0  00000+0 0  9996
2  2639   2.7640  79.2733 0009353 190.9665  72.5757  1.00230102117335
Epoch: 2025-12-08T18:40Z
TLE epoch observation values (Epoch: 2025-12-08T18:40:09.238Z)
Latitude
-2.75168°
Longitude
-14.89968°
Altitude
35,786.417 km
Speed
3.075 km/s
True Right ascension
22h 51m 38s
True Declination
-2° 44' 56"
Sunlit
Object was in daylight at epoch
Visualization orbit readout
Latitude
Unknown
Longitude
Unknown
Altitude
Unknown
Speed
Unknown
Apparent Right ascension
Unknown
Apparent Declination
Unknown
Sunlit
N/A
Visualization observer readout
Local Sidereal Time
03:32:51
Azimuth
Unknown
Elevation
Unknown
Doppler factor
Unknown
Orbital elements
Apogee altitude
35,838.799 km
Perigee altitude
35,759.902 km
Semi-major axis
42,177.488 km
Eccentricity
0.00094
Inclination
2.764°
RAAN
79.2733°
Arg. of periapsis
190.9665°
True anomaly
72.678°
Mean anomaly
72.5757°
Eccentric anomaly
72.62684°
Mean motion
0.25057 °/min
Orbital period
1,436.75 mins
BSTAR
0
Loading maneuver chart data...
Computing Atmospheric mass density...

Documentation

Showing up to 5 results
|